TimeEST,TemperatureF,Dew PointF,Humidity,Sea Level PressureIn,VisibilityMPH,Wind Direction,Wind SpeedMPH,Gust SpeedMPH,PrecipitationIn,Events,Conditions,WindDirDegrees,DateUTC
12:53 AM,37.0,28.0,70,30.37,10.0,NE,4.6,-,N/A,,Clear,50,2013-02-18 05:53:00
1:53 AM,35.1,28.9,78,30.36,10.0,ENE,4.6,-,N/A,,Clear,70,2013-02-18 06:53:00
2:53 AM,35.1,28.9,78,30.35,10.0,NE,4.6,-,N/A,,Clear,40,2013-02-18 07:53:00
3:53 AM,33.1,28.9,85,30.35,10.0,NE,5.8,-,N/A,,Clear,40,2013-02-18 08:53:00
4:53 AM,32.0,28.9,88,30.35,10.0,NE,4.6,-,N/A,,Clear,50,2013-02-18 09:53:00
5:53 AM,32.0,28.9,88,30.34,10.0,NE,5.8,-,N/A,,Clear,50,2013-02-18 10:53:00
6:53 AM,33.1,28.0,82,30.35,10.0,NE,5.8,-,N/A,,Clear,50,2013-02-18 11:53:00
7:53 AM,39.0,32.0,76,30.36,10.0,ENE,6.9,-,N/A,,Clear,60,2013-02-18 12:53:00
8:53 AM,50.0,28.0,43,30.37,10.0,ENE,9.2,-,N/A,,Clear,60,2013-02-18 13:53:00
9:53 AM,55.9,30.9,39,30.37,10.0,ENE,13.8,-,N/A,,Clear,60,2013-02-18 14:53:00
10:53 AM,61.0,36.0,39,30.37,10.0,East,11.5,-,N/A,,Clear,80,2013-02-18 15:53:00
11:53 AM,64.9,39.0,39,30.35,10.0,East,11.5,-,N/A,,Clear,90,2013-02-18 16:53:00
12:53 PM,68.0,43.0,40,30.31,10.0,ESE,19.6,25.3,N/A,,Partly Cloudy,110,2013-02-18 17:53:00
1:53 PM,70.0,43.0,38,30.28,10.0,SE,13.8,19.6,N/A,,Mostly Cloudy,130,2013-02-18 18:53:00
2:53 PM,70.0,43.0,38,30.26,10.0,ESE,8.1,-,N/A,,Scattered Clouds,120,2013-02-18 19:53:00
3:53 PM,69.1,43.0,39,30.26,10.0,ESE,10.4,-,N/A,,Clear,120,2013-02-18 20:53:00
4:53 PM,68.0,45.0,43,30.25,10.0,ESE,8.1,-,N/A,,Scattered Clouds,110,2013-02-18 21:53:00
5:53 PM,64.9,46.0,50,30.25,10.0,East,8.1,-,N/A,,Clear,100,2013-02-18 22:53:00
6:53 PM,62.1,46.0,56,30.26,10.0,East,8.1,-,N/A,,Scattered Clouds,90,2013-02-18 23:53:00
7:53 PM,59.0,46.0,62,30.26,10.0,East,6.9,-,N/A,,Clear,80,2013-02-19 00:53:00
8:53 PM,57.0,46.9,69,30.27,10.0,East,6.9,-,N/A,,Clear,90,2013-02-19 01:53:00
9:53 PM,55.0,46.9,74,30.28,10.0,East,5.8,-,N/A,,Clear,90,2013-02-19 02:53:00
10:53 PM,54.0,48.0,80,30.26,10.0,ESE,5.8,-,N/A,,Clear,110,2013-02-19 03:53:00
11:53 PM,53.1,48.0,83,30.25,10.0,East,3.5,-,N/A,,Clear,100,2013-02-19 04:53:00